sat.trackr.live / text

‹ back to catalog

STARLINK-35919

NORAD 66888 · 2025-283L

PAYLOAD ACTIVE UNKNOWN

§ Identity

Operator
Country
US
Launch date
2025-12-04
Launch site
AFWTR
Launch vehicle
Mass (kg)
RCS (m²)

Purposes: comms

External: N2YO · Heavens-Above · Gunter

§ Orbital elements

Epoch: 2026-09-19T21:16:07.222080Z

Period
93.85 min
Inclination
53.1594°
Eccentricity
0.0002394
Mean motion
15.34404278 rev/d
Perigee alt
461.1 km
Apogee alt
464.3 km
Semi-major
6,840.8 km
B*
6.3995e-4
RAAN
198.8050°
Arg perigee
82.9532°
Mean anomaly
277.1743°
Rev number
4,562

§ Raw data

STARLINK-359191 66888U 25283L   26262.88619470  .00021311  00000+0  63995-3 0  99992 66888  53.1594 198.8050 0002394  82.9532 277.1743 15.34404278 45629

JSON: /api/v1/satellites/66888 · /tle

For live sub-satellite position, see the globe view (requires WebGL).

§ Visibility from observer

Set your observer location to see the next 7 days of passes ≥ 10°. The values pass through the URL so the page stays shareable.

No JS? Fill the form by hand. The geolocation button needs JavaScript.